"Pseudo-MPEC" for P218ght

Created 2020 Oct 19 1:07:49 UT using Find_Orb

Click here for an explanation of pseudo-MPECs

 
 Astrometry: 
     P218ght  C2020 10 17=^w9Scw8[$`?A0rLc`S/Z9?JfqU*Yt/P2,ieoAstrometry@$+DJF52
     P218ght  C2020 10 17?OBFl)y!=mug3redacted;Fv=%KLU]YyI(?M3k^]tZ]clickf=]BF52
     P218ght  C2020 10 17Z*q!==xZCI`R`sQ/K65i\MV.dwK!s`+j;Ha9\^B7WBfrm#a\_5coF52
     P218ght KC2020 10 18.25157301 26 26.49 -06 27 17.1    ~AI6M 21.21GVNEOCPV06
     P218ght KC2020 10 18.25315601 26 26.17 -06 27 13.4    ~AI6M 20.90GVNEOCPV06
     P218ght KC2020 10 18.25474001 26 25.89 -06 27 10.1    ~AI6M 21.21GVNEOCPV06
     P218ght KC2020 10 18.25632701 26 25.55 -06 27 06.1    ~AI6M 21.75GVNEOCPV06
     P218ght ^C2020 10 18.38189501 26 02.138-06 22 14.55   ~AIKq 21.05GVNEOCP568
     P218ght ^C2020 10 18.38284101 26 01.949-06 22 12.37   ~AIKq 20.87GVNEOCP568
     P218ght ^C2020 10 18.38379501 26 01.760-06 22 10.23   ~AIKq 21.14GVNEOCP568
     P218ght  C2020 10 18w'F(sb3cX5%qqchmEcwe5jBw'[fDQcKQe-K(th`/m1ZWS'1REbZSF51
     P218ght  C2020 10 18`W4vCX',]XLD]TLn'?%;P3veA$]1xYythereW1!=nYil=wdCkkK`F51
     P218ght  C2020 10 18G^]cI$A-Zfor-_:,YKZhfexplanationmXYd/Ca!i$L)K0@h3EctF51

Station data:
(568) Mauna Kea  (N19.826116 W155.472200)  US/Hawaii.
(F51) Pan-STARRS 1, Haleakala  (N20.707235 W156.255910)  US/Hawaii.
   Observers N. Primak, A. Schultz, S. Watters, J. Thiel, T. Goggia. Measurer
   PS1 Science Consortium. 1.8-m Ritchey-Chrétien + CCD.
(F52) Pan-STARRS 2, Haleakala  (N20.707384 W156.255910)  US/Hawaii. 1.8-m
   Ritchey-Chrétien + CCD.
(V06) Catalina Sky Survey-Kuiper  (N32.416847 W110.732550)  US/Arizona.
   Observers T. A. Pruyne, B. M. Africano, E. J. Christensen, G. A. Farneth,
   D. C. Fuls, A. R. Gibbs, A. D. Grauer, H. Gröller, J. A. Johnson, R. A.
   Kowalski, S. M. Larson, G. J. Leonard, D. Rankin, R. L. Seaman, F. C.
   Shelly. 1.55-m reflector + CCD.

Orbital elements:  P218ght
   Perihelion 2021 Jan 6.314169 +/- 0.817 TT =  7:32:24 (JD 2459220.814169)
Epoch 2020 Oct 18.0 TT = JDT 2459140.5   Earth MOID: 0.1929   Ma: 0.0072
M 316.41514358 +/- 2.2              (J2000 ecliptic)          AutoNEOCP
n   0.54267954 +/- 0.0232           Peri.   59.70643 +/- 0.17
a   1.48858538 +/- 0.0424           Node    33.20215 +/- 0.19
e   0.2660743 +/- 0.0238            Incl.   17.95918 +/- 0.6
P   1.82/663.36d           H 23.2   G  0.15   U 10.2  
q 1.09251092 +/- 0.00617    Q 1.88465983 +/- 0.0919
From 13 observations 2020 Oct. 17-18 (26.6 hr); mean residual 0".12
Residuals in arcseconds: 
201017 F52  .04-  .16-    201018 V06  .25+  .29-    201018 F51  .07-  .11+    
201017 F52  .06+  .16+    201018 V06  .15-  .12+    201018 F51  .01-  .03+    
201017 F52  .01+  .05+    201018 568  .04+  .02-    201018 F51  .13+  .09+    
201018 V06  .12-  .11-    201018 568  .04+  .01+    
201018 V06  .23-  .00     201018 568  .05+  .03-    

Ephemerides (geocentric):
Date (UTC) HH   RA              Dec         delta   r     elong  mag " sig PA
---- -- -- --  -------------   -----------  ------ ------ -----  --- ---- ---
2020 10 19 01  01 23 57.482   -05 56 34.44  .27738 1.2648 163.8 21.6 2.02 110
2020 10 19 02  01 23 49.581   -05 54 56.67  .27724 1.2647 163.8 21.6 2.22 111
2020 10 19 03  01 23 41.673   -05 53 18.75  .27710 1.2645 163.8 21.6 2.43 112
2020 10 19 04  01 23 33.759   -05 51 40.66  .27696 1.2644 163.8 21.6 2.64 113
2020 10 19 05  01 23 25.838   -05 50 02.41  .27682 1.2642 163.8 21.6 2.87 114
2020 10 19 06  01 23 17.910   -05 48 23.99  .27668 1.2640 163.8 21.6 3.10 115
2020 10 19 07  01 23 09.977   -05 46 45.42  .27654 1.2639 163.8 21.6 3.34 115
2020 10 19 08  01 23 02.036   -05 45 06.68  .27640 1.2637 163.8 21.6 3.59 116
2020 10 19 09  01 22 54.090   -05 43 27.78  .27626 1.2636 163.8 21.6 3.85 116
2020 10 19 10  01 22 46.137   -05 41 48.72  .27612 1.2634 163.8 21.6 4.11 117
2020 10 19 11  01 22 38.177   -05 40 09.50  .27598 1.2633 163.8 21.6 4.38 117
2020 10 19 12  01 22 30.212   -05 38 30.12  .27584 1.2631 163.8 21.6 4.66 117
2020 10 19 13  01 22 22.240   -05 36 50.57  .27570 1.2630 163.8 21.6 4.95 118
2020 10 19 14  01 22 14.261   -05 35 10.87  .27556 1.2628 163.8 21.6 5.24 118
2020 10 19 15  01 22 06.277   -05 33 31.00  .27543 1.2627 163.8 21.6 5.55 118
2020 10 19 16  01 21 58.286   -05 31 50.97  .27529 1.2625 163.8 21.6 5.86 119
2020 10 19 17  01 21 50.289   -05 30 10.79  .27515 1.2624 163.8 21.6 6.18 119
2020 10 19 18  01 21 42.286   -05 28 30.44  .27502 1.2622 163.7 21.6 6.50 119
2020 10 19 19  01 21 34.277   -05 26 49.93  .27488 1.2621 163.7 21.6 6.84 119
2020 10 19 20  01 21 26.262   -05 25 09.26  .27474 1.2619 163.7 21.6 7.18 119
2020 10 19 21  01 21 18.241   -05 23 28.43  .27461 1.2618 163.7 21.6 7.53 120
2020 10 19 22  01 21 10.213   -05 21 47.44  .27447 1.2616 163.7 21.6 7.89 120
2020 10 19 23  01 21 02.180   -05 20 06.28  .27434 1.2615 163.7 21.6 8.26 120
2020 10 20 00  01 20 54.140   -05 18 24.97  .27420 1.2613 163.7 21.6 8.63 120
2020 10 20 01  01 20 46.095   -05 16 43.50  .27407 1.2612 163.7 21.6 9.01 120
2020 10 20 02  01 20 38.043   -05 15 01.87  .27394 1.2610 163.7 21.6 9.40 120
2020 10 20 03  01 20 29.986   -05 13 20.08  .27380 1.2609 163.7 21.6 9.80 121
2020 10 20 04  01 20 21.923   -05 11 38.12  .27367 1.2607 163.7 21.6 10.2 121
2020 10 20 05  01 20 13.854   -05 09 56.01  .27354 1.2606 163.7 21.6 10.6 121
2020 10 20 06  01 20 05.779   -05 08 13.74  .27340 1.2604 163.7 21.6 11.0 121
2020 10 20 07  01 19 57.698   -05 06 31.31  .27327 1.2603 163.6 21.6 11.5 121
2020 10 20 08  01 19 49.611   -05 04 48.72  .27314 1.2601 163.6 21.6 11.9 121
2020 10 20 09  01 19 41.519   -05 03 05.97  .27301 1.2600 163.6 21.6 12.4 121
2020 10 20 10  01 19 33.421   -05 01 23.06  .27288 1.2598 163.6 21.6 12.8 121
2020 10 20 11  01 19 25.317   -04 59 40.00  .27275 1.2597 163.6 21.6 13.3 121
2020 10 20 12  01 19 17.207   -04 57 56.77  .27262 1.2595 163.6 21.6 13.8 122
2020 10 20 13  01 19 09.092   -04 56 13.38  .27249 1.2594 163.6 21.6 14.2 122
2020 10 20 14  01 19 00.971   -04 54 29.84  .27236 1.2592 163.6 21.6 14.7 122
2020 10 20 15  01 18 52.845   -04 52 46.14  .27223 1.2591 163.6 21.6 15.2 122
2020 10 20 16  01 18 44.712   -04 51 02.28  .27210 1.2589 163.5 21.6 15.7 122
2020 10 20 17  01 18 36.575   -04 49 18.26  .27197 1.2588 163.5 21.6 16.3 122
2020 10 20 18  01 18 28.432   -04 47 34.08  .27184 1.2586 163.5 21.6 16.8 122
2020 10 20 19  01 18 20.283   -04 45 49.75  .27171 1.2585 163.5 21.6 17.3 122
2020 10 20 20  01 18 12.129   -04 44 05.26  .27159 1.2583 163.5 21.6 17.8 122
2020 10 20 21  01 18 03.969   -04 42 20.61  .27146 1.2582 163.5 21.6 18.4 122
2020 10 20 22  01 17 55.804   -04 40 35.80  .27133 1.2580 163.5 21.6 19.0 122
2020 10 20 23  01 17 47.633   -04 38 50.83  .27120 1.2579 163.5 21.6 19.5 122
2020 10 21 00  01 17 39.457   -04 37 05.71  .27108 1.2577 163.4 21.6 20.1 122